This is the latest recevied weather packets stored in our database for station/object KF0EZB. If no packets are shown the sender has not sent any weather packets the latest 10 day(s).
| Time | Temp. | Humidity | Pressure | Rain* | Wind** | Luminosity | Snow |
|---|---|---|---|---|---|---|---|
| 1777940316 | 26.11° C | 32% | 1001.1 hPa | 0 mm | - | 27 W/m² | - |
| 1777940012 | 26.11° C | 31% | 1000.9 hPa | 0 mm | - | 19 W/m² | - |
| 1777939710 | 26.67° C | 30% | 1001.1 hPa | 0 mm | - | 17 W/m² | - |
| 1777939407 | 26.67° C | 30% | 1001 hPa | 0 mm | - | 18 W/m² | - |
| 1777939104 | 26.67° C | 31% | 1000.8 hPa | 0 mm | - | 24 W/m² | - |
| 1777938801 | 26.67° C | 31% | 1001 hPa | 0 mm | - | 32 W/m² | - |
| 1777938497 | 26.67° C | 32% | 1000.7 hPa | 0 mm | - | 38 W/m² | - |
| 1777938195 | 27.22° C | 31% | 1000.8 hPa | 0 mm | - | 48 W/m² | - |
| 1777937891 | 27.22° C | 31% | 1000.6 hPa | 0 mm | - | 49 W/m² | - |
| 1777937587 | 27.78° C | 30% | 1000.7 hPa | 0 mm | - | 62 W/m² | - |
| 1777937284 | 28.33° C | 28% | 1000.4 hPa | 0 mm | - | 70 W/m² | - |
| 1777936981 | 28.33° C | 25% | 1000.3 hPa | 0 mm | - | 85 W/m² | - |
| 1777936678 | 28.89° C | 24% | 1000.4 hPa | 0 mm | - | 101 W/m² | - |
| 1777936374 | 28.89° C | 25% | 1000.2 hPa | 0 mm | - | 95 W/m² | - |
| 1777936070 | 28.89° C | 24% | 1000.5 hPa | 0 mm | - | 98 W/m² | - |
| 1777935769 | 28.89° C | 25% | 1000.2 hPa | 0 mm | - | 124 W/m² | - |
| 1777935467 | 29.44° C | 24% | 1000.3 hPa | 0 mm | - | 112 W/m² | - |
| 1777935163 | 30° C | 25% | 1000.6 hPa | 0 mm | - | 128 W/m² | - |
| 1777934860 | 30° C | 25% | 1000.6 hPa | 0 mm | - | 257 W/m² | - |
| 1777934558 | 30° C | 23% | 1000.4 hPa | 0 mm | - | 228 W/m² | - |
| 1777934254 | 30° C | 23% | 1000.2 hPa | 0 mm | - | 294 W/m² | - |
| 1777933949 | 30° C | 24% | 1000.4 hPa | 0 mm | - | 318 W/m² | - |
| 1777933647 | 30° C | 24% | 1000.6 hPa | 0 mm | - | 339 W/m² | - |
| 1777933343 | 30° C | 22% | 1000.6 hPa | 0 mm | - | 311 W/m² | - |
| 1777933041 | 30.56° C | 22% | 1000.4 hPa | 0 mm | - | 349 W/m² | - |
* Rain latest hour (hover to see other rain measurements)
** Current wind speed in m/s (hover to see current wind gust speed)